Погода в Таубате

Бразилия     23°00′48″S   45°33′13″W
темп.,
°C
ветер,
м/с
пор.,
м/с
влажн.,
%
обл.,
%
осадки,
мм/ч
давл.,
гПа
погр.,
м
26 февраля, пт
пт2600:00+17ссв119825 1.6 101324
03:00+17ююв119846 1.6 101123
06:00+17в019764 0.1 101223
09:00+22в128443 0.1 1014456
12:00+22св348667 0.8 1013344
15:00+24в347778 3.3 1012685
18:00+20всв2595100 2.9 1012184
21:00+19всв1296100 3.8 101431
27 февраля, сб
сб2700:00+18в1197100 0.0 101429
03:00+17в1297100 0.0 101346
06:00+17в119790 0.0 101432
09:00+19св139784 0.1 1015177
12:00+20в259296 0.4 1015340
15:00+22в248396 0.6 1013406
18:00+20в1190100 0.2 101328
21:00+18вюв119499 0.2 101525
28 февраля, вс
вс2800:00+17в119568 0.0 101525
03:00+17вюв119765 0.0 101323
06:00+16всв129719 0.0 101530
09:00+22всв238220 0.0 1015366
12:00+26с126627 0.4 1014839
15:00+27всв116832 4.3 1012777
18:00+22всв229085 3.6 101238
21:00+19всв119388 4.2 101423
1 марта, пн
пн100:00+18всв119691 0.1 101427
03:00+17всв229780 0.1 101275
06:00+17всв229795 0.0 101465
09:00+22всв238390 0.0 1014350
12:00+28всв126094 0.1 1013863
15:00+27сз116397 1.2 1011816
18:00+23св228699 1.0 101125
21:00+19всв129566 1.1 101330
2 марта, вт
вт200:00+18всв119648 0.0 101425
03:00+18св129674 0.0 101338
06:00+17всв129674 0.0 101437
09:00+22всв238169 0.0 1015358
12:00+27св227097 1.8 1014633
15:00+27ссз126898 4.9 1012672
18:00+23юв1187100 1.6 101224
21:00+20св119396 1.8 101424